Location: Marcé
(47.5801°N, 0.3280°W)
Time: 11:32:17
(UTC+01:00)

deb Explorer IX - Pass Details

Date: 07 December 2021
Orbit: 544 x 1082 km, 38.8° (Epoch: 17 January)

Event Time Altitude Azimuth Distance (km) Brightness Sun altitude
Rises 09:51:41 0° 222° (SW) 3,268 ? 8.8°
Reaches altitude 10° 09:54:57 10° 205° (SSW) 2,228 ? 9.2°
Maximum altitude 09:58:28 19° 162° (SSE) 1,610 ? 9.6°
Drops below altitude 10° 10:01:42 10° 118° (ESE) 2,014 ? 9.9°
Sets 10:04:28 0° 100° (E) 2,844 ? 10.2°
